Tracking 19575 objects as of 19-Feb-2019
HD Live streaming from Space Station
objects crossing your sky now

INS-1B

Track INS-1B now!
10-day predictions


NORAD ID: 41954
Int'l Code: 2017-008G
Perigee: 496.0 km
Apogee: 508.1 km
Inclination: 97.4 °
Period: 94.5 minutes
Semi major axis: 6873 km
RCS: Unknown
Launch date: February 15, 2017
Source: India (IND)
Launch site: SRIHARIKOTA (SRI)
aabbcc
Your satellite tracking list
Your tracking list is empty




NASA's NSSDC Master Catalog

Two Line Element Set (TLE):
1 41954U 17008G   19049.78256346  .00001112  00000-0  49344-4 0  9996
2 41954  97.4154 116.3285 0008773 197.5854 162.5081 15.23623782111549
Source of the keplerian elements: AFSPC